Weather History for KAEX - November, 2011

Change the Weather History Date:

Sunday, November 27, 2011

  Actual Average Record
Temperature  
Mean Temperature 47 °F 54 °F  
Max Temperature 51 °F 65 °F 89 °F (1965)
Min Temperature 43 °F 43 °F 22 °F (1903)
Degree Days  
Heating Degree Days 18 12  
Month to date heating degree days 174 215  
Since 1 July heating degree days 278 288  
Moisture  
Dew Point 40 °F    
Average Humidity 79    
Maximum Humidity 93    
Minimum Humidity 65    
Precipitation  
Precipitation 0.03 in 0.23 in 3.60 in (2001)
Month to date precipitation 3.23 4.70  
Year to date precipitation 29.66 49.01  
Snow  
Snow 0.00 in - 0.00 in ()
Month to date snowfall 0.0  
Since 1 July snowfall 0.0  
Since 1 September snowfall 0.0  
Snow Depth 0.00 in    
Sea Level Pressure  
Sea Level Pressure 30.09 in    
Wind  
Wind Speed 11 mph (NW)    
Max Wind Speed 20 mph    
Max Gust Speed 25 mph    
Visibility 10 miles    
Events Rain    
T = Trace of Precipitation, MM = Missing Value Source: NWS Daily Summary

Daily Weather History Graph

Daily Weather History Graph

Search for Another Location

Airport or City:

Trip Planner

Search our weather history database for the weather conditions in past years. The results will help you decide how hot, cold, wet, or windy it might be!

Date:

Astronomy

Nov. 27, 2011 Rise Set
Actual Time 6:47 AM CST 5:07 PM CST
Civil Twilight 6:21 AM CST 5:33 PM CST
Nautical Twilight 5:51 AM CST 6:03 PM CST
Astronomical Twilight 5:22 AM CST 6:32 PM CST
Moon 9:11 AM CST 7:47 PM CST
Length of Visible Light 11h 12m
Length of Day
10h 19m
Waxing Crescent, 8% of the Moon is Illuminated
Nov 27
Waxing Crescent
Dec 2
First Quarter
Dec 10
Full
Dec 17
Last Quarter
Dec 24
New

Hourly Weather History & Observations

Time (CST) Temp. Windchill Dew Point Humidity Pressure Visibility Wind Dir Wind Speed Gust Speed Precip Events Conditions
12:01 AM 51.8 °F - 48.2 °F 88% 30.00 in 7.0 mi WNW 10.4 mph - N/A Rain Light Rain
12:53 AM 50.0 °F - 48.0 °F 93% 30.02 in 10.0 mi WNW 9.2 mph - 0.02 in Rain Light Rain
1:20 AM 50.0 °F - 46.4 °F 87% 30.03 in 10.0 mi WNW 9.2 mph - 0.01 in Rain Light Rain
1:28 AM 50.0 °F - 46.4 °F 87% 30.02 in 10.0 mi WNW 9.2 mph - 0.01 in Rain Light Rain
1:53 AM 50.0 °F - 46.9 °F 89% 30.01 in 7.0 mi WNW 12.7 mph 19.6 mph 0.01 in Rain Light Rain
2:20 AM 50.0 °F - 46.4 °F 87% 30.02 in 10.0 mi WNW 8.1 mph - 0.01 in Rain Light Rain
2:53 AM 48.9 °F - 46.0 °F 90% 30.03 in 10.0 mi WNW 6.9 mph - 0.01 in   Overcast
3:53 AM 48.2 °F - 44.6 °F 87% 30.02 in 9.0 mi WNW 9.2 mph - N/A   Overcast
4:53 AM 48.9 °F - 44.1 °F 83% 30.02 in 9.0 mi NW 11.5 mph - N/A   Overcast
5:53 AM 48.0 °F - 43.0 °F 83% 30.04 in 10.0 mi NW 13.8 mph - N/A   Overcast
6:53 AM 48.0 °F - 43.0 °F 83% 30.06 in 10.0 mi NNW 12.7 mph 24.2 mph N/A   Overcast
7:53 AM 46.9 °F - 43.0 °F 86% 30.09 in 9.0 mi NNW 13.8 mph 20.7 mph N/A   Overcast
8:53 AM 48.2 °F - 42.8 °F 82% 30.10 in 9.0 mi NW 13.8 mph - N/A   Overcast
9:53 AM 48.9 °F - 39.9 °F 71% 30.11 in 9.0 mi NNW 15.0 mph 25.3 mph N/A   Overcast
10:53 AM 48.9 °F - 39.9 °F 71% 30.13 in 10.0 mi NW 13.8 mph - N/A   Overcast
11:53 AM 48.0 °F - 39.9 °F 74% 30.12 in 10.0 mi NW 12.7 mph - 0.00 in   Overcast
12:53 PM 48.0 °F - 37.0 °F 66% 30.12 in 10.0 mi WNW 11.5 mph - N/A   Overcast
1:09 PM 46.4 °F 40.1 °F 35.6 °F 66% 30.09 in 10.0 mi NW 15.0 mph - N/A   Overcast
1:53 PM 46.9 °F - 35.1 °F 63% 30.10 in 10.0 mi NW 15.0 mph - N/A   Overcast
2:53 PM 46.0 °F 39.9 °F 35.1 °F 66% 30.12 in 10.0 mi NW 13.8 mph - N/A   Overcast
3:53 PM 45.0 °F 37.9 °F 34.0 °F 65% 30.12 in 10.0 mi NW 16.1 mph 24.2 mph N/A   Overcast
4:53 PM 45.0 °F 39.7 °F 34.0 °F 65% 30.13 in 10.0 mi NNW 10.4 mph - N/A   Overcast
5:53 PM 45.0 °F 40.6 °F 34.0 °F 65% 30.14 in 10.0 mi NNW 8.1 mph - N/A   Overcast
6:53 PM 45.0 °F 40.6 °F 35.1 °F 68% 30.15 in 10.0 mi NNW 8.1 mph - N/A   Overcast
7:53 PM 45.0 °F 41.2 °F 35.1 °F 68% 30.16 in 10.0 mi NNW 6.9 mph - N/A   Overcast
8:53 PM 44.1 °F 40.1 °F 35.1 °F 71% 30.16 in 10.0 mi NNW 6.9 mph - N/A   Overcast
9:53 PM 43.0 °F 38.8 °F 34.0 °F 71% 30.15 in 10.0 mi NNW 6.9 mph - N/A   Overcast
10:53 PM 43.0 °F 37.7 °F 34.0 °F 71% 30.14 in 10.0 mi NW 9.2 mph - N/A   Overcast
11:53 PM 43.0 °F 39.5 °F 34.0 °F 71% 30.13 in 10.0 mi NW 5.8 mph - N/A   Overcast